スミルノワ-チェルヌイフ彗星

74P/Smirnova-Chernykh (2009)

English version
Home page
Total 6,336 html files since Dec. 4, 1995
Updated on April 6, 2008

---------------------------------------------------------------------

・ プロフィール

・ 写真集

・ 軌道要素

The following orbital elements are taken from MPC 56804:

Epoch 2009 July 28.0 TT = JDT 2455040.5
T 2009 July 30.3354 TT                                  MPC
q   3.557668             (2000.0)            P               Q
n   0.1155990      Peri.   87.2431      -0.9563512      -0.2695552
a   4.173495       Node    77.1004      +0.2002329      -0.8857214
e   0.147557       Incl.    6.6474      +0.2128358      -0.3779385
P   8.53
From 788 observations 1988-2005, mean residual 0".8.

・ 星図

・ 光度変化

        m1 = 2.0 + 5 logΔ + 20.0 log r

---------------------------------------------------------------------

軌道要素はMPCのEphemerides and Orbital Elementsに掲載されたものです。
星図は StellaNavigator Ver.2.0 for Windows (アストロアーツ 編著 / アスキー出版局刊) で作成したものです。
光度グラフはComet for Windowsで作成したものです。

---------------------------------------------------------------------

Copyright(C) 1995-2008 Seiichi Yoshida (comet@aerith.net). All rights reserved.